Location: Zagreb
(45.8000°N, 16.0000°E)
Time: 02:15:47
(UTC+01:00)

Courier 1B - Pass Details

Date: 07 October 2020
Orbit: 963 x 1209 km, 28.3° (Epoch: 25 October)

Event Time Altitude Azimuth Distance (km) Brightness Sun altitude
Rises 20:30:41 0° 225° (SW) 4,008 11.1 -22.7°
Reaches altitude 10° 20:34:29 10° 207° (SSW) 3,084 10.2 -23.3°
Maximum altitude 20:39:19 18° 168° (SSE) 2,563 9.4 -24.1°
Enters shadow 20:39:27 18° 167° (SSE) 2,564 9.4 -24.2°
